User: anonymous   Login
Location: Unspecified
(0.0000°N, 0.0000°E)
Time: 03:59:39
(UTC+00:00)
Language:

YUBILEINY - Orbit

View from above orbital plane
View from above orbital plane
View from above satellite
View from above satellite

Ground track
Ground track

The orbit data is extracted from the following two-line orbital elements,

1 32953U 08025A   19083.76811816  .00000020  00000-0  75656-4 0  9991
2 32953  82.5067 198.1839 0018015 319.0388  40.9336 12.43088220491636
Epoch (UTC): 24 March 2019 18:26:05
Eccentricity: 0.0018015
inclination: 82.5067°
perigee height: 1479 km
apogee height: 1508 km
right ascension of ascending node: 198.1839°
argument of perigee: 319.0388°
revolutions per day: 12.43088220
mean anomaly at epoch: 40.9336°
orbit number at epoch: 49163

The dashed part of the orbit path shows where the satellite is in the earth's shadow,  

DLR